Regional Weather Roundup
Issued by NWS Glasgow, MT

Home | Current Version | Previous Version | Text Only | Print | Product List | Glossary On
Versions: 1 2 3 4 5 6 7 8 9 10 11 12 13 14 15 16 17 18 19 20 21 22 23 24 25 26 27 28 29 30 31 32 33 34 35 36 37 38 39 40 41 42 43 44 45 46 47 48 49 50
000
ASUS45 KGGW 061415
RWRGGW
HOURLY WEATHER ROUNDUP FOR NORTHEAST MONTANA
NATIONAL WEATHER SERVICE GLASGOW MONTANA
800 AM MDT WED MAY 06 2015

NOTE: "FAIR" INDICATES FEW OR NO CLOUDS BELOW 12,000 FEET WITH NO
SIGNIFICANT WEATHER AND/OR OBSTRUCTIONS TO VISISBILITY.

NORTHEAST MONTANA


CITY           SKY/WX    TMP DP  RH WIND       PRES   REMARKS
GLASGOW        CLOUDY    53  44  71 NW15      29.74R
WOLF POINT     PTSUNNY   58  47  66 N12G20    29.69R
JORDAN           N/A     52  44  74 NW21G26   29.77R
WINNETT          N/A     47  36  65 W12G23      N/A
SIDNEY         PTSUNNY   59  52  77 S6        29.69S
GLENDIVE       PTSUNNY   57  48  72 W9        29.72R
OPHEIM           N/A     50  43  76 NW10      29.53R

FORT PECK REPORTS


CITY           SKY/WX    TMP DP  RH WIND       PRES   REMARKS
FORT PECK        N/A     55  45  68 W16G24      N/A
THE PINES        N/A     52  44  74 NW9G21      N/A

SOUTHEAST MONTANA


CITY           SKY/WX    TMP DP  RH WIND       PRES   REMARKS
BILLINGS       CLOUDY    48  41  76 N12G22    29.81R
MILES CITY     CLOUDY    56  46  69 N15       29.73R
BAKER          CLOUDY    55  51  86 SE14      29.72S
LIVINGSTON     CLOUDY    45  36  70 SW5       29.87R

CENTRAL MONTANA


CITY           SKY/WX    TMP DP  RH WIND       PRES   REMARKS
HAVRE          PTSUNNY   44  38  79 W14       29.89R
LEWISTOWN      MOSUNNY   43  32  65 W10       29.90R
GREAT FALLS    MOSUNNY   42  33  70 N9        29.93R
CUT BANK       CLOUDY    37  33  85 N14       29.94R
HELENA         PTSUNNY   48  28  46 NW9       29.92R
BUTTE          MOSUNNY   38  25  59 NW5       29.93R
BOZEMAN        CLOUDY    42  35  76 W12       29.92R

WESTERN MONTANA


CITY           SKY/WX    TMP DP  RH WIND       PRES   REMARKS
MISSOULA       MOSUNNY   37  26  64 CALM      29.98R
KALISPELL      NOT AVBL

NORTH DAKOTA


CITY           SKY/WX    TMP DP  RH WIND       PRES   REMARKS
WILLISTON      PTSUNNY   60  53  77 S12       29.70R
DICKINSON      CLOUDY    57  54  89 SE16      29.73S
MINOT          CLOUDY    60  56  86 SE15      29.76F
BISMARCK       LGT RAIN  59  58  96 SE10      29.78F FOG

SOUTHERN SASKATCHEWAN


CITY           SKY/WX    TMP DP  RH WIND       PRES   REMARKS
REGINA         MOSUNNY   57  50  77 SE9       29.69R
ESTEVAN        CLOUDY    61  54  77 S17G24    29.70S
SWIFT CURRENT  CLOUDY    45  39  81 W24       29.76R



USA.gov is the U.S. government's official web portal to all federal, state and local government web resources and services.